Weather in Vyrubovo

Russia / Tambov Oblast     53°06′00″N   40°56′34″E
temp.,
°C
wind,
m/s
gust,
m/s
humid.,
%
clouds,
%
prec.,
mm/h
press.,
hPa
HPBL,
m
27 february, sat
sat2700:00+2w71491100 0.0 1006433
03:000w7149388 0.0 1005504
06:00+1w7149397 0.0 1003696
09:00+1w8159198 0.1 1003874
12:00+1wnw9159998 0.3 1004779
15:00−6nnw8128797 0.6 1006760
18:00−9nnw51191100 0.0 1009595
21:00−10nnw41093100 0.1 1012365
28 february, sun
sun2800:00−12nnw499534 0.0 1013243
03:00−12nw359518 0.0 1014128
06:00−13nw339660 0.0 101571
09:00−11nw359573 0.0 1016232
12:00−9nw359292 0.0 1016334
15:00−7nw359294 0.1 1016379
18:00−8nnw2295100 0.0 101621
21:00−7n3694100 0.1 1018275
1 march, mon
mon100:00−9ne1196100 0.1 102021
03:00−9nnw019599 0.1 102221
06:00−10nw119599 0.0 102321
09:00−8nw229699 0.1 102580
12:00−6wnw129287 0.0 1025243
15:00−4wsw249392 0.1 1025348
18:00−4wsw369493 0.0 1024152
21:00−3wsw5109393 0.1 1023401
2 march, tue
tue200:00−3wsw61195100 0.1 1020353
03:00−2wsw81494100 0.3 1017489
06:00−1wsw81596100 1.0 1013633
09:00+1w71398100 1.7 1011682
12:000nw81397100 0.3 1010806
15:00+1nw7129087 0.4 1010862
18:00−2wnw5119186 0.1 1011287
21:00−1nw6129693 0.3 1012748
3 march, wed
wed300:00−2nw61288100 0.1 1012434
03:00−4nw5139298 0.2 1012421
06:00−4nw5119593 0.1 1013485
09:00−3nw6119296 0.3 1015737
12:00−2nw6108892 0.1 1016770
15:00−2nw7109096 0.2 1017907
18:00−2nw61087100 0.1 1017618
21:00−3wnw41094100 0.1 1019463